Volver al catálogo

STARLINK-34517

ActivoComunicacionesVLEO
NORAD 64595·PAYLOAD·🇺🇸 United States

Lanzado Jun 25, 2025 desde Cape Canaveral Space Force Station

Loading…

Próximos Pases (próximas 24 horas)

TLE

ActualizadoSource: CelesTrak SupGP

Época: Sep 14, 2026, 15:39 UTC

1 64595C 25137B   26257.65256944 -.00060775  00000+0 -17941-2 0  2577
2 64595  53.1579 174.7186 0001246  93.7765 334.5964 15.34448292    12

Sigue STARLINK-34517 en tiempo real con AllMySat

Download on the App Store